LUCH 5V

Last updated on Sat Apr 26 2025 00:02:29 GMT+0000 (Coordinated Universal Time)

1 39727U 14023A 25115.47796729 -.00000261 00000+0 00000+0 0 9991 2 39727 4.0885 73.6596 0002558 339.0069 67.7737 1.00265823558328
UTC large
Height (km)
Speed (km/s)
/
Latitude / Longitude
Inclination (degrees)
Orbital Period (minutes)
Azimuth
Elevation
Range (km)
Doppler Factor

Next 0 passes for location: London (51.5072 / 0.1276)

Sorry there are no passes over London.